Location: *
(43.0833°N, 13.0500°E)
Time: 14:30:38
(UTC+00:00)

Ariane Rocket - Visible Passes

Search period start: 18 February 2020 00:00
Search period end: 28 February 2020 00:00
Orbit: 761 x 769 km, 98.7° (Epoch: 17 February)

Date Brightness Start Highest point End Pass type
(mag) Time Alt. Az. Time Alt. Az. Time Alt. Az.
18 Feb 2.9 18:20:52 10° SSE 18:25:57 83° ENE 18:31:06 10° NNW visible
18 Feb 5.9 20:03:39 10° WSW 20:05:32 12° W 20:07:27 10° WNW visible
19 Feb 3.5 17:44:40 10° SE 17:49:22 39° ENE 17:54:05 10° N visible
19 Feb 5.0 19:24:07 10° SSW 19:28:23 27° W 19:32:41 10° NW visible
20 Feb 4.3 17:09:25 10° ESE 17:12:57 19° ENE 17:16:30 10° NNE visible
20 Feb 3.5 18:46:26 10° S 18:51:27 58° W 18:56:30 10° NNW visible
21 Feb 2.9 18:09:40 10° SSE 18:14:43 65° ENE 18:19:47 10° N visible
21 Feb 5.7 19:51:06 10° SW 19:54:06 16° W 19:57:09 10° NW visible
22 Feb 3.8 17:33:45 10° SE 17:38:10 31° ENE 17:42:37 10° N visible
22 Feb 4.6 19:12:26 10° SSW 19:17:02 34° W 19:21:40 10° NNW visible
23 Feb 3.1 18:35:04 10° S 18:40:09 75° WSW 18:45:17 10° NNW visible
24 Feb 3.1 17:58:34 10° SE 18:03:29 51° ENE 18:08:25 10° N visible
24 Feb 5.4 19:39:00 10° SW 19:42:43 20° W 19:46:27 10° NW visible
25 Feb 4.0 17:22:55 10° ESE 17:27:00 25° ENE 17:31:06 10° N visible
25 Feb 4.1 19:00:52 10° S 19:05:41 43° W 19:10:34 10° NNW visible
26 Feb 2.9 18:23:47 10° SSE 18:28:53 86° ENE 18:34:01 10° NNW visible
26 Feb 6.0 20:06:52 10° WSW 20:08:29 11° W 20:10:07 10° WNW visible
27 Feb 3.4 17:47:32 10° SE 17:52:16 40° ENE 17:57:01 10° N visible
27 Feb 5.0 19:27:08 10° SSW 19:31:20 26° W 19:35:33 10° NW visible
